Back to catalog

STARLINK-4605

AliveCommunicationsVLEO
NORAD 53616·PAYLOAD·🇺🇸 United States

Launched Aug 28, 2022 from Cape Canaveral Space Force Station

Loading…

Next Passes (next 24 hours)

TLE

FreshSource: CelesTrak SupGP

Epoch: Sep 14, 2026, 13:47 UTC

1 53616C 22104AE  26257.57479167  .00003493  00000+0  10321-3 0  2573
2 53616  53.1584  89.2017 0001163  90.6865  85.3570 15.34387338    15

Track STARLINK-4605 in real time with AllMySat

Download on the App Store